Location: Unspecified
(48.2082°N, 0.0000°E)
Time: 23:43:34
(UTC+00:00)

A-11 Canister half - Pass Details

Date: 20 June 2019
Orbit: 1514 x 1685 km, 47.2° (Epoch: 19 July)

Event Time Altitude Azimuth Distance (km) Brightness Sun altitude
Rises 12:12:32 0° 244° (WSW) 4,881 11.8 65.1°
Reaches altitude 10° 12:15:43 10° 242° (WSW) 3,876 11.5 65.1°
Maximum altitude 12:25:31 73° 161° (SSE) 1,664 11.3 64.8°
Drops below altitude 10° 12:34:59 10° 79° (E) 3,747 11.0 64.4°
Sets 12:38:01 0° 78° (ENE) 4,713 11.4 64.2°
